Lid_Strength_Index
1 1 2 5 9 10 12 11 8 9 8 6 5 7 8 7 9 12 2 1 0 0 -1 -1 -2 -1 -0 -0 -0 -0 -0 0 0 0 0 0 -0 -1 -1 -1 -1 -1 -1 -1 -1 -1 -0 -1 -1
2 1 4 7 11 14 12 9 10 8 6 5 6 6 7 9 5 4 3 0 -0 -0 -1 -1 -1 -1 -0 -0 -0 0 0 0 0 0 1 0 -1 -1 -0 -1 -1 -1 -1 -1 -1 -1 -1 -2 -1
1 2 7 10 11 13 12 8 8 7 5 6 7 5 6 8 4 3 1 0 -0 -0 -0 -1 -1 -0 -0 -0 0 0 0 0 1 0 0 -0 -0 -0 -1 -1 -1 -1 -1 -1 -1 -1 -2 -1 -1
3 3 6 11 12 10 10 8 7 7 7 5 6 8 5 3 3 2 0 -0 0 0 -0 -1 -1 -0 -0 0 1 1 1 0 0 1 0 0 -0 -1 -1 -1 -1 -1 -1 -1 -1 -1 -1 -1 -1
3 5 10 12 12 10 8 7 7 8 8 7 6 8 7 3 1 1 1 0 0 0 -0 0 -1 0 1 1 0 0 1 0 1 1 1 1 0 -0 -1 -1 -1 -1 -0 -1 -1 -1 -1 -1 -1
7 6 12 13 12 9 8 6 6 7 7 7 7 8 7 2 2 1 0 1 0 0 0 1 1 1 1 1 1 1 1 1 1 1 1 1 1 1 0 -1 -1 -0 -0 -1 -1 -0 -0 0 -0
8 10 12 11 11 10 8 6 7 7 7 8 5 9 6 4 2 1 1 0 0 -0 0 1 2 2 1 1 1 1 1 2 2 2 2 2 2 2 1 0 -1 0 -0 -1 -0 0 0 1 1
7 8 11 10 12 10 7 7 6 6 8 4 4 9 8 4 1 1 1 1 0 0 1 2 2 2 3 3 2 2 2 3 3 3 3 3 2 2 1 2 0 -0 -0 -1 0 1 1 1 2
6 11 12 11 10 9 6 8 6 5 6 6 5 5 4 2 2 2 2 2 1 1 2 2 2 2 2 3 3 3 3 3 3 3 3 3 3 3 3 3 1 0 -0 -0 1 1 2 3 3
8 11 10 11 10 9 7 7 7 7 7 7 6 4 3 3 3 3 3 3 3 3 4 3 2 2 3 2 3 3 3 3 3 3 4 4 4 4 4 4 2 0 1 1 1 2 2 2 4
8 11 10 11 9 8 7 7 6 8 9 7 7 6 4 4 3 3 3 3 4 4 5 4 3 3 3 3 3 4 4 4 4 4 4 4 4 4 4 4 3 2 2 2 2 2 4 6 7
10 9 10 9 8 7 7 6 8 7 8 5 5 4 4 4 4 4 4 3 3 5 6 4 3 3 3 3 4 4 4 5 5 5 4 5 5 5 5 4 4 3 2 2 3 5 7 9 9
11 11 10 9 9 7 6 8 8 8 6 5 4 4 4 4 4 3 2 2 3 5 5 5 4 3 3 4 4 5 5 5 5 5 5 5 5 5 5 5 4 3 3 3 5 6 8 9 10
10 11 10 9 9 8 8 9 8 8 6 5 5 5 4 4 4 3 3 3 3 4 5 5 4 4 4 4 5 5 6 6 6 6 6 4 5 5 6 6 5 5 4 4 6 8 9 10 11
11 12 11 11 10 11 10 11 10 7 6 6 6 6 5 4 3 4 3 3 2 3 3 4 4 4 4 5 5 5 5 5 6 6 6 6 5 5 6 6 6 5 4 5 6 9 10 12 12
12 12 14 11 11 11 11 13 11 7 7 7 6 6 5 5 4 3 3 3 2 2 3 4 5 5 4 4 5 5 5 5 4 5 6 6 6 6 7 7 6 5 5 6 6 10 11 12 13
12 15 14 14 10 11 11 13 11 10 9 8 7 6 6 5 4 4 3 3 3 2 3 4 5 5 5 5 5 5 5 5 5 5 5 5 6 6 7 7 6 5 6 6 6 10 12 14 14
15 15 13 13 11 11 11 12 11 9 10 11 10 9 7 6 5 4 3 3 2 1 1 2 4 4 5 6 7 6 6 6 6 6 6 5 5 6 6 7 7 7 7 6 7 9 11 13 13
11 13 14 12 11 10 11 12 13 11 11 12 11 9 10 9 7 6 5 3 3 3 1 2 3 4 5 6 7 6 6 6 6 6 6 5 5 6 6 7 7 7 7 7 6 10 12 13 13
12 13 14 13 12 12 14 14 12 12 12 12 11 11 10 10 9 9 7 6 5 3 3 2 1 2 3 3 4 4 4 4 5 5 6 5 5 6 6 6 6 6 6 7 8 9 11 11 13
13 14 14 13 13 13 14 16 14 13 12 12 12 11 11 11 10 9 8 8 7 7 6 4 2 2 2 3 3 4 4 6 6 6 6 6 6 6 6 7 7 6 6 7 7 9 10 11 13
15 12 12 14 14 18 14 21 16 15 14 13 13 13 12 11 10 9 9 9 8 8 7 6 5 5 4 3 4 4 5 6 5 6 5 5 7 8 8 7 7 6 6 6 7 7 8 8 11
14 12 13 13 15 16 17 17 16 15 16 15 14 12 11 11 10 10 10 9 8 8 8 7 7 6 5 4 4 4 4 4 4 4 5 5 7 8 8 8 7 7 6 6 6 7 7 7 8
12 13 14 15 16 20 18 19 18 17 16 15 14 12 12 12 11 10 9 9 9 8 7 7 7 6 5 5 5 5 5 5 5 5 5 5 6 8 9 8 8 7 7 6 6 6 7 6 7
13 15 19 20 21 21 17 19 18 15 14 14 14 13 12 12 12 12 11 10 9 8 7 7 7 7 6 6 5 5 5 5 6 5 5 5 5 6 7 9 9 7 7 6 6 6 7 8 7
15 16 19 22 21 21 18 21 18 14 13 13 12 12 12 13 12 11 10 10 9 8 8 8 8 8 7 7 7 6 6 6 5 4 5 5 5 5 5 7 9 9 8 7 7 7 7 7 8
15 17 15 19 20 21 19 18 15 14 14 13 13 12 13 12 12 11 10 9 9 9 9 9 9 9 8 8 8 7 7 7 7 6 6 5 5 5 5 6 8 8 8 7 6 7 7 7 8
14 13 17 17 22 23 22 21 18 15 14 13 12 12 12 11 11 10 10 10 10 11 11 11 10 10 10 10 10 9 8 7 7 6 6 6 5 4 4 4 5 6 7 7 6 6 7 7 7
15 15 15 15 17 20 22 21 14 14 13 13 12 12 12 12 12 11 11 11 12 12 12 12 11 11 10 9 9 9 8 8 7 7 6 6 6 5 5 5 5 6 7 7 7 7 7 8 8
14 14 14 18 20 18 19 20 13 12 12 11 11 10 10 10 10 10 10 11 12 12 12 12 11 11 11 10 10 10 9 9 9 8 8 7 6 6 5 5 5 5 6 8 8 8 8 8 8